Regional Weather Roundup
Issued by NWS Bismarck, ND

Home | Current Version | Previous Version | Text Only | Print | Product List | Glossary On
Versions: 1 2 3 4 5 6 7 8 9 10 11 12 13 14 15 16 17 18 19 20 21 22 23 24 25 26 27 28 29 30 31 32 33 34 35 36 37 38 39 40 41 42 43 44 45 46 47 48 49 50
000
ASUS43 KBIS 211010
RWRBIS

NWR BROADCAST TEXT
NATIONAL WEATHER SERVICE BISMARCK ND
500 AM CDT MON AUG 21 2017

NOTE: "FAIR" INDICATES FEW OR NO CLOUDS BELOW 12,000 FEET WITH NO
SIGNIFICANT WEATHER AND/OR OBSTRUCTIONS TO VISIBILITY.


CITY           SKY/WX    TMP DP  RH WIND       PRES   REMARKS
WILLISTON      MOCLDY    59  47  64 S3        29.95S
MINOT          CLOUDY    58  49  72 E3        29.97S
MINOT AFB      MOCLDY    60  48  64 NE6       29.96F
BISMARCK       CLOUDY    57  53  86 NW17      30.04F
DICKINSON      CLEAR     55  46  71 SE7       29.97F
GARRISON         N/A     60  53  77 S14G21    29.95F
HETTINGER ARPT MOCLDY    54  49  83 N7        30.00R
JAMESTOWN      CLOUDY    56  54  93 CALM      29.99F
CARRINGTON     FAIR      57  54  88 SE3       30.01F
HAZEN          PTSUNNY   61  54  77 SE17      29.95F
LINTON         PTSUNNY   55  48  76 CALM      29.97S
MANDAN         CLOUDY    55  54  94 N12       30.03F
RUGBY          PTSUNNY   55  55 100 CALM      30.01R
STANLEY        FAIR      55  50  82 S6        29.99S
TIOGA          FAIR      54  45  71 S7        29.97F
WATFORD CITY   FAIR      52  45  76 CALM      29.95F
$$

CITY           SKY/WX    TMP DP  RH WIND       PRES   REMARKS
GRAND FORKS    PTCLDY    56  51  84 SE3       29.98F
GRAND FORKS AF CLOUDY    53  50  87 CALM      29.99S
DEVILS LAKE    LGT RAIN  61  55  81 S12       29.97F
FARGO          CLOUDY    61  56  83 S5        30.01R
CANDO          FAIR      55  55 100 NE5       30.02F
CAVALIER       FAIR      55  48  76 W5        29.98R
GRAFTON        FAIR      52  52 100 S5        29.99F
GWINNER        SUNNY     55  55 100 CALM      30.02R
LANGDON        PTSUNNY   55  55 100 CALM      30.03R
ROLLA          CLOUDY    57  52  82 CALM      30.02S
WALHALLA       FAIR      54  54 100 CALM      29.99R
$$

CITY           SKY/WX    TMP DP  RH WIND       PRES   REMARKS
ABERDEEN       CLOUDY    57  55  93 NE3       30.02R
MOBRIDGE       LGT RAIN  61  56  83 SE25      29.87F
BUFFALO          N/A     58  51  78 SW6       29.94R
RAPID CITY     MOCLDY    59  52  77 NE9       29.98S
GLASGOW        PTCLDY    62  34  35 N8        29.99S
SIDNEY         MOCLDY    54  48  80 CALM      29.96R
WOLF POINT     MOCLDY    62  36  37 W7        29.97R
GLENDIVE       PTCLDY    55  43  63 SW3       29.99R
MILES CITY     CLOUDY    62  41  46 NW8       30.00R
BAKER          PTCLDY    52  46  80 S3        30.01R
$$

CITY           SKY/WX    TMP DP  RH WIND       PRES   REMARKS
BILLINGS       CLOUDY    60  32  34 NW10      30.09R
GREAT FALLS    CLEAR     53  29  39 SW10      30.12R
REGINA         PTCLDY    52  43  71 N14       29.98R
ESTEVAN        CLOUDY    61  45  55 S9        29.90F
$$





USA.gov is the U.S. government's official web portal to all federal, state and local government web resources and services.